Temperature
16 16 17 17 17 17 17 17 17 17 17 17 17 17 17 17 17 17 16 16 16 16 16 16 16 16 16 16 16 16 16 16 16 16 16 16 15 15 15 15 15 14 15
16 16 16 16 16 17 17 17 17 17 17 17 17 16 16 16 16 16 16 16 16 16 16 16 16 16 16 16 16 16 16 16 16 16 15 15 15 15 15 15 15 14 15
16 16 16 16 16 16 16 16 16 16 16 16 16 16 16 16 16 16 16 16 16 16 16 16 16 16 16 16 16 16 16 16 16 15 15 14 15 15 15 15 15 14 14
16 16 16 16 16 16 16 16 16 16 16 16 16 16 16 16 16 16 16 16 16 16 16 16 16 16 16 16 16 16 16 16 16 15 14 14 14 15 15 15 14 14 14
15 15 16 16 16 16 16 16 16 16 16 16 16 16 16 16 16 16 16 16 16 16 16 16 16 16 16 16 16 16 16 16 15 15 14 14 14 14 15 15 14 14 14
15 15 16 16 16 16 16 16 16 16 16 16 16 16 16 16 16 16 16 16 16 16 16 16 16 16 16 16 16 16 16 15 15 14 14 14 14 14 14 14 14 14 14
15 15 16 16 16 16 16 16 16 16 16 16 16 16 16 16 16 16 16 16 16 16 16 16 16 15 15 15 15 15 15 15 15 14 14 14 14 14 14 14 14 14 14
15 15 15 15 15 15 15 15 16 16 15 16 16 15 15 16 16 16 16 16 16 16 16 16 15 15 15 15 15 15 15 15 15 14 14 14 14 14 14 14 14 14 14
15 15 15 15 15 15 15 15 15 15 15 15 15 15 15 15 15 16 16 15 15 15 15 15 15 15 15 15 15 15 15 15 14 14 14 14 14 14 14 14 14 14 14
14 14 15 15 15 15 15 15 15 15 15 15 15 15 15 15 15 15 15 15 15 15 15 15 15 15 15 15 15 15 15 15 14 14 14 14 14 14 14 14 14 14 13
14 14 14 14 15 15 15 15 15 15 15 15 15 15 15 15 15 15 15 15 15 15 15 15 15 15 15 15 15 15 15 14 14 14 14 14 14 14 14 14 14 14 13
14 14 14 14 14 14 14 14 15 15 15 15 15 15 15 15 15 15 15 15 15 15 15 15 15 15 14 14 14 14 14 14 14 14 14 14 14 14 14 14 13 13 13
13 13 14 14 14 14 14 14 14 14 14 14 14 14 14 15 15 15 15 15 15 15 15 15 15 14 14 14 14 14 14 14 13 13 14 14 14 14 13 13 13 13 13
13 13 13 13 13 13 13 13 14 14 14 14 14 14 14 14 14 14 14 14 15 14 14 14 14 14 14 14 14 14 14 14 14 13 13 14 14 13 13 13 13 13 13
13 13 13 13 13 13 13 13 13 13 13 14 14 14 14 14 14 14 14 14 14 14 14 14 14 14 14 14 14 14 14 13 13 13 13 14 14 13 13 13 13 13 13
12 12 12 13 13 13 13 13 13 13 13 13 13 13 13 13 14 14 14 14 14 14 14 14 14 14 14 14 14 13 13 13 13 13 13 13 13 13 13 13 13 13 12
12 12 12 12 12 12 13 13 13 12 12 12 12 13 13 13 13 13 13 13 13 13 13 13 13 13 13 13 13 13 13 13 13 13 13 13 13 13 13 13 13 12 12
12 12 12 12 12 12 12 12 12 12 12 12 12 12 12 12 12 13 13 13 13 13 13 13 13 13 13 13 13 13 13 13 13 13 13 13 13 12 12 12 12 12 12
11 11 11 11 12 12 12 12 12 12 12 12 12 12 12 12 12 12 12 12 12 12 12 12 12 12 12 13 13 13 13 12 12 13 12 12 12 12 12 12 12 12 12
11 11 11 11 11 11 11 11 11 11 11 11 11 12 12 12 12 12 12 12 12 12 12 12 12 12 12 12 12 12 12 12 12 12 12 12 12 12 12 12 12 11 11
10 11 11 11 11 11 11 11 11 11 11 11 11 11 11 11 11 11 11 11 11 11 12 12 11 11 11 11 11 11 11 12 12 12 12 12 12 12 11 11 11 11 11
10 10 10 10 10 10 10 10 11 11 11 11 11 11 11 11 11 11 11 11 11 11 11 11 11 11 11 11 11 10 11 11 11 11 11 11 11 11 11 11 11 11 11
9 9 10 10 10 10 10 10 10 10 10 10 10 11 11 11 11 11 11 11 11 11 11 11 11 11 10 10 10 10 10 11 10 11 11 11 11 11 11 11 10 10 10
9 9 9 9 9 9 9 9 9 9 9 10 10 10 10 10 10 10 10 10 10 10 10 10 10 10 10 10 10 10 10 10 9 10 10 10 10 10 10 10 10 10 10
9 9 9 9 9 9 9 9 9 9 9 9 9 9 10 10 10 10 10 10 10 10 10 10 10 10 10 10 10 10 9 9 9 9 9 9 9 10 10 10 9 9 9
8 8 8 8 8 8 8 9 8 8 9 9 9 9 9 9 9 9 9 9 9 9 10 10 10 10 9 9 9 9 9 9 9 9 8 8 8 9 9 9 9 9 8
Wind_Speed
5 6 8 9 12 13 13 12 12 12 13 13 13 13 13 13 13 13 12 12 11 11 11 12 12 12 12 12 12 12 12 12 12 12 12 12 11 11 10 8 7 11 11
6 8 9 9 11 12 12 12 12 12 12 13 13 13 13 13 13 12 12 12 11 11 11 11 12 11 11 11 11 11 12 12 11 11 10 11 10 10 9 8 9 10 10
6 8 10 9 10 11 11 11 11 12 12 12 12 13 13 12 12 12 12 12 11 11 11 11 11 11 11 10 10 11 11 10 10 8 6 8 9 9 9 9 9 9 9
6 8 9 9 9 10 11 10 10 11 11 11 12 12 12 12 12 12 12 12 11 11 11 11 11 11 10 10 10 10 10 9 8 5 5 6 7 8 7 7 7 8 8
6 7 9 9 9 9 10 10 10 9 9 10 11 12 12 12 12 12 12 11 11 11 11 11 11 11 10 10 9 9 9 8 6 4 5 5 6 7 6 6 6 6 6
6 7 9 8 8 9 9 9 9 8 9 9 10 11 11 12 11 11 11 11 11 11 11 11 11 11 10 9 9 9 9 7 6 4 4 4 5 6 5 5 5 5 4
5 6 8 7 7 8 8 8 8 8 8 8 9 10 10 11 11 11 11 12 11 11 11 11 11 11 10 9 9 9 8 6 4 4 4 4 5 5 4 4 3 3 3
5 5 6 7 7 7 7 8 8 8 7 7 8 9 9 9 10 10 10 11 11 11 11 11 11 11 10 10 9 9 8 7 5 4 4 4 4 3 4 3 3 3 3
5 4 4 5 6 7 6 6 7 7 7 7 7 7 8 8 9 9 10 11 11 11 11 11 11 11 10 10 9 9 9 7 5 4 4 3 4 3 3 3 2 2 2
4 4 3 3 3 4 5 6 6 6 6 7 7 6 7 8 9 9 10 10 11 11 11 11 11 11 11 10 10 10 10 9 6 5 4 4 4 4 4 3 2 2 1
3 3 2 2 2 2 3 4 5 6 6 7 7 7 7 8 8 9 9 9 10 10 10 11 11 11 11 10 10 11 10 7 6 5 5 4 5 5 4 4 3 3 2
2 2 2 2 1 1 2 3 3 4 5 6 6 7 7 7 7 7 7 8 9 10 10 10 10 11 11 9 10 11 9 8 7 6 5 6 6 6 5 5 4 4 3
1 1 1 1 1 0 1 2 2 2 3 5 5 6 6 6 6 6 6 8 9 10 10 9 11 10 10 8 8 10 9 8 6 6 6 7 7 7 6 6 5 5 5
1 0 0 0 0 0 1 1 2 2 2 3 4 6 5 4 5 5 5 6 7 8 8 8 7 9 9 10 10 9 9 8 7 6 5 8 8 8 7 7 6 6 6
1 1 1 1 1 1 1 1 2 2 3 3 4 5 5 4 5 5 5 6 7 7 7 7 7 8 8 8 8 9 9 9 8 7 6 8 9 8 8 7 7 7 7
1 1 1 1 1 1 1 2 2 2 3 3 4 5 6 5 5 5 5 6 6 7 7 7 7 7 6 6 7 9 9 8 8 8 7 7 9 9 8 8 8 7 7
2 1 1 1 1 2 2 2 2 3 3 3 4 5 6 6 5 5 5 5 6 6 7 6 7 6 6 6 7 7 7 8 8 9 8 7 7 9 9 9 8 7 7
2 2 1 1 2 2 2 2 2 2 3 3 4 4 6 6 6 6 5 5 6 6 5 5 5 6 6 6 6 6 6 6 8 8 8 8 7 6 8 8 8 7 7
2 2 2 2 2 2 2 2 2 2 2 3 3 4 4 6 7 6 5 5 6 5 5 5 5 5 5 6 6 5 5 6 7 7 8 8 7 6 6 6 7 7 7
3 3 3 2 2 2 2 2 2 2 2 3 3 3 5 5 6 6 5 6 6 5 5 6 5 5 4 4 4 5 5 6 6 6 7 7 7 7 7 6 6 6 6
3 3 3 3 2 2 2 2 2 3 3 3 3 4 5 5 5 5 5 5 6 6 6 7 5 5 4 3 3 4 4 6 7 6 6 6 6 6 6 6 5 5 5
4 3 3 3 3 3 2 3 3 3 3 3 3 3 4 5 5 5 5 5 6 6 7 7 6 4 4 4 4 3 3 5 5 6 6 5 6 5 5 5 5 6 5
5 4 3 4 4 3 3 2 2 2 3 3 3 3 3 4 4 5 5 5 5 6 6 7 7 7 6 5 4 4 3 4 2 3 5 5 5 4 4 4 5 6 7
5 4 4 4 4 4 3 3 4 4 4 4 4 4 3 4 4 4 4 4 5 5 5 6 6 6 7 6 5 4 4 2 3 3 3 4 5 5 5 4 5 6 6
5 4 4 4 4 4 4 4 4 5 5 4 4 5 4 3 3 3 4 4 4 4 5 5 5 6 6 7 5 4 4 4 5 4 5 5 5 5 5 5 5 4 6
4 4 5 5 5 4 4 4 5 6 6 6 6 5 4 3 3 4 4 4 5 5 5 6 6 7 6 7 6 5 5 4 5 5 5 5 5 4 4 4 4 4 5
Wind_Direction
150 150 143 151 155 156 156 155 153 152 153 152 152 152 151 150 149 146 144 139 137 134 130 126 123 120 117 113 109 105 103 102 98 96 93 92 91 91 88 83 84 85 78
149 150 141 145 152 155 158 156 154 154 155 156 157 156 156 155 154 152 150 146 144 141 137 132 128 125 121 118 115 110 108 104 101 98 102 103 95 91 89 78 63 80 81
146 148 147 144 148 151 153 154 155 156 159 160 161 160 159 160 159 159 158 153 149 147 143 138 133 130 126 122 119 115 112 108 106 112 138 114 104 97 93 89 85 85 83
143 148 147 141 147 150 149 150 151 157 162 166 165 163 162 162 161 161 160 157 154 150 147 143 138 135 132 128 125 122 119 116 115 148 127 105 108 102 99 97 93 89 84
140 147 137 139 146 148 149 149 152 157 163 167 169 168 167 166 167 166 164 160 155 153 150 148 144 142 139 136 133 130 127 125 136 163 109 108 107 107 105 103 97 92 87
136 140 136 139 145 149 150 151 153 158 165 168 169 171 173 172 173 172 169 164 161 159 157 155 152 150 149 146 143 140 138 142 172 133 123 120 113 112 111 108 99 94 91
130 133 138 140 143 144 151 155 154 158 162 167 173 175 176 177 176 176 175 172 170 169 167 165 163 160 158 157 155 151 149 163 172 142 140 132 114 122 126 121 109 99 95
117 124 133 139 144 144 147 156 160 163 166 171 176 178 176 178 178 179 177 177 179 178 176 175 173 170 168 169 166 162 161 180 183 164 160 144 117 143 142 134 127 116 101
106 110 119 140 150 149 150 154 160 165 171 173 173 174 173 175 178 183 183 182 185 185 183 183 181 178 178 178 174 169 170 192 203 178 176 158 138 169 164 154 143 138 122
101 99 106 118 143 161 167 157 159 165 170 174 174 171 174 174 179 181 188 186 187 189 188 188 188 186 185 182 178 176 178 196 209 194 191 160 160 186 183 177 172 174 170
95 90 90 100 119 154 170 161 172 171 174 180 181 177 185 191 190 186 189 182 188 192 192 192 192 190 187 186 183 182 188 209 207 206 198 156 183 198 202 198 198 208 214
99 75 90 95 100 133 161 176 184 191 190 198 197 191 198 199 195 194 180 182 190 192 195 197 195 194 201 199 189 189 206 215 212 207 193 174 201 213 216 211 211 221 234
126 67 63 90 103 155 192 194 193 201 202 209 205 200 204 202 198 198 195 192 199 198 202 197 202 208 210 208 203 203 211 212 213 211 197 185 210 221 226 223 219 227 238
157 133 339 219 191 248 242 218 209 213 215 217 215 208 206 207 210 206 205 205 206 206 207 207 212 213 215 214 214 213 210 212 215 215 200 188 210 224 233 235 229 234 241
201 215 312 301 241 242 239 236 219 223 226 224 225 222 218 216 218 218 219 215 215 214 213 213 216 217 220 220 222 222 219 217 217 217 206 190 208 225 235 241 242 242 244
250 274 302 300 278 255 245 244 241 231 232 233 227 228 225 226 226 223 225 224 223 221 221 221 220 218 218 220 225 226 227 224 225 223 222 202 205 220 232 241 247 249 249
267 282 289 293 289 270 259 256 254 246 238 236 236 232 228 229 232 229 229 226 224 221 220 224 222 221 221 220 225 229 229 227 227 226 224 226 215 213 224 235 243 251 253
263 270 283 296 293 281 270 256 251 250 245 241 246 239 233 233 235 235 233 230 224 218 217 217 217 219 220 224 225 225 228 229 230 228 225 224 224 221 215 221 236 245 250
261 261 263 273 281 289 283 265 253 246 250 249 248 251 244 239 235 234 236 234 224 218 218 217 214 219 220 224 227 228 230 230 227 226 225 224 224 227 229 211 219 232 242
256 256 257 266 274 277 275 267 252 242 246 256 255 258 257 247 239 235 236 234 226 219 215 213 209 211 221 221 225 230 233 232 231 230 228 224 225 229 233 231 224 223 229
250 255 262 271 271 268 262 259 253 254 256 254 262 268 261 254 244 237 240 238 229 221 220 215 210 207 215 218 226 233 235 233 234 234 230 228 226 226 226 232 236 237 232
244 250 265 269 269 262 255 263 262 267 261 260 269 271 265 255 248 240 235 238 231 224 222 216 211 210 212 209 222 230 238 229 226 231 230 230 229 220 223 232 241 242 245
242 245 253 264 268 264 256 253 259 259 262 256 258 261 268 259 246 241 240 240 234 228 224 218 213 211 211 212 219 225 229 237 238 222 228 228 229 229 231 236 241 242 245
242 248 252 255 258 259 253 241 245 248 252 260 265 262 263 261 253 242 241 240 238 230 225 222 219 220 215 213 217 231 244 255 236 239 222 223 233 240 241 245 243 242 245
241 244 248 248 249 250 250 248 250 254 257 263 265 263 262 260 258 253 241 237 238 232 225 220 215 217 219 217 215 216 226 235 240 243 252 242 242 241 250 255 251 248 249
235 238 243 241 243 244 244 244 250 257 257 255 258 260 261 259 256 254 245 234 233 230 226 221 215 213 214 216 216 216 219 221 225 235 250 257 258 257 263 257 255 255 260
Height
1517 1518 1520 1522 1524 1525 1527 1529 1530 1531 1533 1534 1534 1535 1536 1537 1538 1538 1539 1539 1540 1540 1541 1541 1541 1542 1542 1542 1542 1542 1542 1542 1542 1542 1542 1542 1542 1542 1542 1542 1542 1542 1541
1516 1518 1520 1522 1524 1526 1527 1529 1530 1532 1533 1534 1535 1536 1537 1537 1538 1539 1540 1540 1541 1541 1542 1542 1542 1543 1543 1543 1543 1544 1544 1544 1544 1544 1544 1544 1544 1543 1543 1543 1543 1543 1542
1516 1518 1520 1522 1524 1526 1527 1529 1530 1532 1533 1534 1535 1536 1537 1538 1539 1539 1540 1541 1541 1542 1542 1543 1543 1544 1544 1544 1544 1545 1545 1545 1545 1545 1545 1546 1545 1544 1544 1544 1544 1544 1543
1516 1518 1520 1522 1524 1526 1527 1529 1530 1532 1533 1534 1535 1536 1537 1538 1539 1540 1540 1541 1542 1542 1543 1543 1544 1544 1545 1545 1545 1545 1546 1546 1546 1546 1547 1547 1546 1545 1545 1545 1545 1544 1544
1516 1518 1520 1522 1524 1525 1527 1529 1530 1531 1533 1534 1535 1536 1537 1538 1539 1540 1540 1541 1542 1542 1543 1544 1544 1545 1545 1546 1546 1546 1546 1546 1547 1547 1548 1547 1547 1546 1546 1545 1545 1545 1544
1517 1518 1520 1522 1523 1525 1527 1528 1529 1531 1532 1533 1535 1536 1537 1537 1538 1539 1540 1541 1542 1543 1543 1544 1544 1545 1546 1546 1546 1547 1547 1547 1547 1548 1548 1548 1547 1546 1546 1546 1545 1545 1545
1517 1519 1520 1522 1523 1525 1526 1527 1529 1530 1531 1532 1534 1535 1536 1537 1538 1539 1540 1541 1542 1542 1543 1543 1544 1545 1545 1546 1546 1547 1547 1547 1548 1548 1548 1548 1547 1546 1546 1546 1545 1545 1544
1516 1518 1520 1521 1523 1524 1525 1527 1528 1529 1530 1531 1533 1534 1535 1536 1537 1538 1539 1540 1541 1542 1542 1543 1544 1544 1545 1546 1546 1546 1547 1547 1547 1548 1548 1547 1547 1546 1546 1545 1545 1545 1544
1516 1517 1519 1520 1522 1523 1525 1526 1527 1528 1529 1530 1531 1533 1534 1535 1536 1537 1538 1539 1540 1541 1541 1542 1543 1544 1544 1545 1545 1546 1546 1546 1548 1547 1547 1547 1546 1546 1546 1545 1545 1544 1544
1516 1517 1518 1519 1520 1522 1523 1524 1526 1527 1528 1529 1530 1531 1532 1533 1534 1535 1536 1537 1538 1539 1540 1541 1542 1543 1543 1544 1544 1545 1545 1546 1547 1546 1546 1546 1545 1545 1545 1544 1544 1543 1543
1515 1516 1517 1518 1519 1520 1521 1522 1523 1525 1526 1527 1528 1529 1530 1531 1532 1534 1535 1536 1537 1538 1538 1539 1540 1541 1542 1542 1543 1543 1544 1545 1545 1545 1545 1545 1544 1544 1544 1543 1543 1542 1542
1514 1515 1516 1516 1517 1518 1519 1520 1521 1522 1523 1524 1525 1526 1528 1529 1530 1531 1532 1533 1534 1535 1536 1537 1538 1539 1540 1541 1541 1541 1542 1543 1544 1543 1543 1543 1543 1543 1543 1542 1542 1541 1540
1512 1513 1514 1515 1516 1517 1517 1518 1519 1520 1521 1522 1523 1524 1525 1526 1527 1528 1529 1530 1532 1533 1534 1535 1536 1537 1538 1538 1539 1539 1540 1541 1541 1541 1541 1541 1541 1541 1541 1541 1540 1540 1539
1511 1512 1512 1513 1514 1515 1515 1516 1516 1517 1518 1519 1519 1521 1522 1523 1524 1525 1526 1527 1528 1529 1531 1532 1533 1534 1535 1536 1536 1537 1537 1538 1539 1539 1539 1539 1539 1539 1539 1539 1538 1538 1537
1510 1510 1510 1511 1512 1512 1513 1513 1514 1515 1515 1516 1517 1517 1518 1519 1520 1521 1522 1523 1525 1526 1527 1528 1529 1531 1532 1533 1533 1534 1535 1535 1536 1536 1536 1536 1537 1537 1537 1536 1536 1535 1535
1508 1508 1508 1509 1509 1510 1510 1511 1511 1512 1512 1513 1513 1514 1515 1516 1517 1518 1519 1520 1521 1522 1523 1525 1526 1527 1528 1529 1530 1531 1531 1532 1532 1533 1533 1533 1533 1534 1534 1534 1533 1533 1532
1506 1506 1507 1507 1507 1507 1508 1508 1509 1509 1509 1510 1510 1511 1511 1512 1513 1514 1515 1516 1517 1518 1519 1521 1522 1523 1524 1525 1526 1527 1527 1528 1529 1529 1530 1530 1530 1530 1530 1530 1530 1530 1529
1504 1504 1505 1505 1505 1505 1505 1505 1506 1506 1506 1507 1507 1507 1508 1509 1509 1511 1511 1512 1513 1514 1515 1516 1518 1519 1520 1521 1522 1523 1523 1524 1525 1525 1526 1526 1526 1526 1526 1526 1526 1526 1526
1502 1502 1502 1502 1502 1502 1502 1502 1502 1502 1503 1503 1504 1504 1504 1505 1506 1507 1508 1508 1510 1510 1511 1512 1513 1515 1515 1517 1518 1518 1519 1520 1521 1521 1521 1522 1522 1522 1522 1522 1522 1522 1522
1499 1499 1499 1500 1500 1500 1499 1499 1500 1500 1500 1500 1500 1500 1501 1501 1502 1503 1503 1504 1505 1506 1507 1508 1509 1510 1511 1512 1513 1514 1515 1516 1516 1516 1517 1517 1518 1518 1518 1518 1518 1517 1517
1496 1497 1497 1497 1497 1497 1496 1496 1496 1497 1496 1497 1497 1497 1497 1498 1498 1499 1499 1500 1501 1502 1503 1504 1505 1506 1507 1509 1510 1510 1510 1511 1512 1512 1513 1513 1513 1513 1513 1513 1513 1513 1512
1493 1493 1493 1493 1493 1493 1493 1493 1493 1493 1493 1494 1494 1494 1494 1494 1494 1495 1495 1496 1497 1498 1499 1500 1501 1502 1503 1504 1506 1507 1507 1508 1507 1507 1508 1508 1508 1508 1508 1508 1508 1508 1508
1490 1490 1490 1490 1490 1490 1490 1490 1490 1490 1490 1490 1490 1490 1490 1490 1490 1491 1491 1492 1493 1494 1495 1496 1497 1498 1499 1500 1501 1503 1504 1503 1503 1503 1503 1503 1504 1504 1504 1504 1503 1503 1503
1487 1487 1487 1487 1487 1487 1487 1487 1486 1486 1486 1486 1486 1486 1486 1486 1486 1487 1487 1488 1489 1490 1491 1491 1492 1493 1494 1495 1496 1497 1499 1500 1500 1499 1499 1499 1499 1499 1499 1499 1499 1498 1497
1484 1484 1484 1484 1483 1483 1483 1483 1483 1483 1483 1483 1483 1482 1482 1482 1482 1483 1483 1484 1484 1485 1486 1487 1488 1489 1490 1490 1491 1492 1493 1495 1496 1496 1495 1495 1495 1495 1494 1494 1494 1493 1492
1481 1480 1480 1480 1480 1480 1480 1479 1479 1479 1479 1479 1478 1478 1478 1478 1478 1478 1479 1479 1480 1481 1481 1482 1483 1484 1485 1486 1487 1487 1489 1490 1490 1491 1491 1490 1490 1490 1490 1489 1489 1488 1487